Tracking 31027 objects as of 19-Jul-2025
HD Live streaming from Space Station
objects crossing your sky now

COSMOS 2251 DEB

Track COSMOS 2251 DEB now!
10-day predictions


NORAD ID: 35442
Int'l Code: 1993-036AKL
Perigee: 636.2 km
Apogee: 649.3 km
Inclination: 74.0 °
Period: 97.4 minutes
Semi major axis: 7013 km
RCS: 0.0032 m2 (small)
Launch date: June 16, 1993
Source: Commonwealth of Independent States (former USSR) (CIS)
Launch site: PLESETSK MISSILE AND SPACE COMPLEX (PKMTR)

Note: This is SATELLITE DEBRIS
Your satellite tracking list
ABS 3
Track 1 satellite(s)




NASA's NSSDC Master Catalog

Two Line Element Set (TLE):
1 35442U 93036AKL 25199.20413837  .00011208  00000-0  15532-2 0  9993
2 35442  74.0291  30.1920 0009320 118.2635 241.9482 14.78021993851691
Source of the keplerian elements: AFSPC